QPF
0.00 0.00 0.00 0.00 0.00 0.00 0.00 0.00 0.00 0.00 0.00 0.00 0.00 0.00 0.00 0.00 0.00 0.04 0.03 0.00 0.00 0.00 0.00 0.00 0.00 0.00 0.00 0.00 0.00 0.00 0.00 0.00 0.00 0.00 0.00 0.00 0.00 0.00 0.00 0.00 0.00 0.00 0.00 0.00 0.00 0.00 0.00 0.00 0.00
0.00 0.00 0.00 0.00 0.00 0.00 0.00 0.00 0.00 0.00 0.00 0.00 0.00 0.00 0.00 0.00 0.00 0.01 0.02 0.00 0.00 0.00 0.00 0.00 0.00 0.00 0.00 0.00 0.00 0.00 0.00 0.00 0.00 0.00 0.00 0.00 0.00 0.00 0.00 0.00 0.00 0.00 0.00 0.00 0.00 0.00 0.00 0.00 0.00
0.00 0.00 0.00 0.00 0.00 0.00 0.00 0.00 0.00 0.00 0.00 0.00 0.00 0.00 0.00 0.01 0.01 0.00 0.00 0.00 0.00 0.00 0.00 0.00 0.01 0.00 0.00 0.00 0.00 0.00 0.00 0.00 0.00 0.00 0.00 0.00 0.00 0.00 0.00 0.00 0.00 0.00 0.00 0.00 0.00 0.00 0.00 0.00 0.00
0.00 0.00 0.00 0.00 0.00 0.00 0.00 0.00 0.00 0.00 0.00 0.00 0.00 0.00 0.00 0.00 0.00 0.00 0.00 0.00 0.00 0.00 0.00 0.00 0.01 0.00 0.00 0.00 0.00 0.00 0.00 0.00 0.00 0.00 0.00 0.00 0.00 0.00 0.00 0.00 0.00 0.00 0.00 0.00 0.00 0.00 0.00 0.00 0.00
0.00 0.00 0.00 0.00 0.00 0.00 0.00 0.00 0.00 0.00 0.00 0.00 0.00 0.00 0.00 0.00 0.00 0.00 0.00 0.00 0.00 0.00 0.00 0.00 0.00 0.00 0.00 0.00 0.00 0.00 0.00 0.00 0.00 0.00 0.00 0.00 0.00 0.00 0.00 0.00 0.00 0.00 0.00 0.00 0.00 0.00 0.00 0.00 0.00
0.00 0.00 0.00 0.00 0.01 0.00 0.00 0.00 0.00 0.00 0.00 0.00 0.00 0.00 0.00 0.00 0.00 0.00 0.00 0.00 0.00 0.00 0.00 0.00 0.00 0.00 0.00 0.00 0.00 0.00 0.00 0.00 0.00 0.00 0.00 0.00 0.00 0.00 0.00 0.00 0.00 0.00 0.00 0.00 0.00 0.00 0.00 0.00 0.00
0.00 0.00 0.00 0.00 0.00 0.00 0.00 0.00 0.00 0.00 0.00 0.00 0.00 0.00 0.00 0.00 0.00 0.00 0.00 0.00 0.00 0.00 0.00 0.00 0.00 0.00 0.00 0.00 0.00 0.00 0.00 0.00 0.00 0.00 0.00 0.00 0.00 0.00 0.00 0.00 0.00 0.00 0.00 0.00 0.00 0.00 0.00 0.00 0.00
0.00 0.00 0.00 0.00 0.00 0.00 0.00 0.00 0.00 0.00 0.00 0.00 0.00 0.00 0.00 0.00 0.00 0.00 0.00 0.00 0.00 0.00 0.00 0.00 0.00 0.00 0.00 0.00 0.00 0.00 0.00 0.00 0.00 0.00 0.00 0.00 0.01 0.00 0.00 0.00 0.02 0.00 0.00 0.00 0.00 0.00 0.00 0.01 0.01
0.00 0.00 0.00 0.00 0.00 0.00 0.00 0.00 0.00 0.00 0.00 0.00 0.00 0.00 0.00 0.00 0.00 0.00 0.00 0.00 0.00 0.00 0.00 0.00 0.00 0.00 0.00 0.00 0.00 0.02 0.00 0.00 0.00 0.00 0.00 0.00 0.00 0.00 0.00 0.00 0.00 0.00 0.00 0.00 0.00 0.00 0.00 0.00 0.01
0.00 0.00 0.00 0.00 0.00 0.00 0.00 0.00 0.00 0.00 0.00 0.00 0.00 0.00 0.00 0.00 0.00 0.00 0.00 0.00 0.00 0.00 0.00 0.00 0.02 0.00 0.00 0.00 0.00 0.00 0.00 0.00 0.00 0.00 0.00 0.00 0.00 0.00 0.00 0.00 0.00 0.00 0.00 0.00 0.00 0.00 0.00 0.00 0.00
0.00 0.00 0.00 0.00 0.00 0.00 0.00 0.00 0.00 0.00 0.00 0.00 0.00 0.00 0.00 0.00 0.00 0.00 0.00 0.00 0.00 0.00 0.00 0.00 0.00 0.00 0.00 0.00 0.00 0.00 0.00 0.00 0.00 0.00 0.00 0.00 0.00 0.00 0.00 0.00 0.00 0.00 0.00 0.00 0.00 0.00 0.00 0.00 0.00
0.00 0.00 0.00 0.00 0.00 0.00 0.00 0.00 0.00 0.00 0.00 0.00 0.00 0.00 0.00 0.00 0.00 0.00 0.00 0.00 0.00 0.00 0.00 0.00 0.00 0.00 0.00 0.00 0.00 0.00 0.00 0.00 0.00 0.00 0.00 0.00 0.00 0.00 0.00 0.00 0.00 0.00 0.00 0.00 0.00 0.00 0.00 0.00 0.00
0.00 0.00 0.00 0.00 0.00 0.00 0.00 0.00 0.00 0.00 0.00 0.00 0.00 0.00 0.00 0.00 0.00 0.00 0.00 0.00 0.00 0.00 0.00 0.00 0.00 0.00 0.00 0.00 0.00 0.00 0.00 0.00 0.00 0.00 0.00 0.00 0.00 0.00 0.00 0.00 0.00 0.00 0.00 0.00 0.00 0.00 0.00 0.00 0.00
0.00 0.00 0.00 0.00 0.00 0.00 0.00 0.00 0.00 0.00 0.00 0.00 0.00 0.00 0.00 0.00 0.00 0.00 0.00 0.00 0.00 0.00 0.00 0.00 0.00 0.00 0.00 0.00 0.00 0.00 0.00 0.00 0.00 0.00 0.00 0.00 0.00 0.00 0.00 0.00 0.00 0.00 0.00 0.00 0.00 0.00 0.00 0.00 0.00
0.00 0.00 0.00 0.00 0.00 0.00 0.00 0.00 0.00 0.00 0.00 0.00 0.00 0.00 0.00 0.00 0.00 0.00 0.00 0.00 0.00 0.00 0.00 0.00 0.00 0.00 0.00 0.00 0.00 0.00 0.00 0.00 0.00 0.00 0.00 0.00 0.00 0.00 0.00 0.00 0.00 0.00 0.00 0.00 0.00 0.00 0.00 0.00 0.00
0.00 0.00 0.00 0.00 0.00 0.00 0.00 0.00 0.00 0.00 0.00 0.00 0.00 0.00 0.00 0.00 0.00 0.00 0.00 0.00 0.00 0.00 0.00 0.00 0.00 0.00 0.00 0.00 0.00 0.00 0.00 0.00 0.00 0.00 0.00 0.00 0.00 0.00 0.00 0.00 0.00 0.00 0.00 0.00 0.00 0.00 0.00 0.00 0.00
0.00 0.00 0.00 0.00 0.00 0.00 0.00 0.00 0.00 0.00 0.00 0.00 0.00 0.00 0.00 0.00 0.00 0.00 0.00 0.00 0.00 0.00 0.00 0.00 0.00 0.00 0.00 0.00 0.00 0.00 0.00 0.00 0.00 0.00 0.00 0.00 0.00 0.00 0.00 0.00 0.00 0.00 0.00 0.00 0.00 0.00 0.00 0.00 0.00
0.00 0.00 0.00 0.00 0.00 0.00 0.00 0.01 0.00 0.00 0.00 0.00 0.00 0.00 0.00 0.00 0.00 0.00 0.00 0.00 0.00 0.00 0.00 0.00 0.00 0.00 0.00 0.00 0.00 0.00 0.00 0.00 0.00 0.00 0.00 0.00 0.00 0.00 0.00 0.00 0.00 0.00 0.00 0.00 0.00 0.00 0.00 0.00 0.00
0.00 0.00 0.00 0.00 0.00 0.00 0.00 0.00 0.00 0.00 0.00 0.00 0.00 0.00 0.00 0.00 0.00 0.00 0.00 0.00 0.00 0.00 0.00 0.00 0.00 0.00 0.00 0.00 0.00 0.00 0.00 0.00 0.00 0.00 0.00 0.00 0.00 0.00 0.00 0.00 0.00 0.00 0.00 0.00 0.00 0.00 0.00 0.00 0.00
0.00 0.00 0.00 0.00 0.00 0.00 0.00 0.00 0.00 0.00 0.00 0.00 0.00 0.00 0.00 0.00 0.01 0.01 0.00 0.00 0.00 0.00 0.00 0.00 0.00 0.00 0.00 0.00 0.00 0.00 0.00 0.00 0.00 0.00 0.00 0.00 0.00 0.00 0.00 0.00 0.00 0.00 0.00 0.00 0.00 0.00 0.00 0.00 0.00
0.00 0.00 0.00 0.00 0.00 0.00 0.00 0.00 0.00 0.00 0.00 0.00 0.00 0.00 0.00 0.00 0.01 0.01 0.00 0.00 0.00 0.00 0.00 0.00 0.00 0.00 0.00 0.00 0.00 0.00 0.00 0.00 0.00 0.00 0.00 0.00 0.00 0.00 0.00 0.00 0.00 0.00 0.00 0.00 0.00 0.00 0.00 0.00 0.00
0.00 0.00 0.00 0.00 0.00 0.00 0.00 0.00 0.00 0.00 0.00 0.00 0.00 0.00 0.00 0.01 0.01 0.00 0.00 0.00 0.00 0.00 0.00 0.00 0.00 0.00 0.00 0.00 0.00 0.00 0.00 0.00 0.00 0.00 0.00 0.00 0.00 0.00 0.00 0.00 0.00 0.00 0.00 0.02 0.01 0.01 0.01 0.00 0.00
0.00 0.00 0.00 0.00 0.00 0.00 0.00 0.00 0.00 0.00 0.00 0.00 0.00 0.00 0.00 0.01 0.01 0.00 0.00 0.00 0.00 0.00 0.00 0.00 0.00 0.00 0.00 0.00 0.00 0.00 0.00 0.00 0.00 0.00 0.00 0.00 0.00 0.00 0.00 0.00 0.01 0.01 0.01 0.02 0.02 0.01 0.01 0.01 0.02
0.00 0.00 0.00 0.00 0.00 0.00 0.00 0.00 0.00 0.00 0.00 0.00 0.00 0.00 0.00 0.00 0.00 0.00 0.00 0.00 0.00 0.00 0.00 0.00 0.00 0.00 0.00 0.00 0.00 0.00 0.00 0.00 0.00 0.00 0.00 0.00 0.00 0.00 0.00 0.00 0.01 0.01 0.01 0.01 0.01 0.00 0.01 0.00 0.01
0.00 0.00 0.00 0.00 0.00 0.00 0.00 0.00 0.00 0.00 0.00 0.00 0.00 0.00 0.00 0.00 0.00 0.00 0.00 0.00 0.00 0.00 0.00 0.00 0.00 0.00 0.00 0.00 0.00 0.00 0.00 0.00 0.00 0.00 0.00 0.00 0.00 0.00 0.00 0.00 0.01 0.01 0.00 0.00 0.00 0.00 0.00 0.00 0.00
0.00 0.00 0.00 0.00 0.00 0.00 0.00 0.00 0.00 0.00 0.00 0.00 0.00 0.00 0.00 0.00 0.00 0.00 0.00 0.00 0.00 0.00 0.00 0.00 0.00 0.00 0.00 0.00 0.00 0.00 0.00 0.00 0.00 0.00 0.00 0.00 0.00 0.00 0.00 0.00 0.01 0.00 0.00 0.00 0.00 0.00 0.00 0.00 0.00
0.00 0.00 0.00 0.00 0.00 0.00 0.00 0.00 0.00 0.00 0.00 0.00 0.00 0.00 0.00 0.00 0.00 0.00 0.00 0.00 0.00 0.00 0.00 0.00 0.00 0.00 0.00 0.00 0.00 0.00 0.00 0.00 0.00 0.00 0.00 0.00 0.00 0.00 0.00 0.00 0.00 0.00 0.00 0.00 0.00 0.00 0.00 0.00 0.00
0.00 0.00 0.00 0.00 0.00 0.00 0.00 0.00 0.00 0.00 0.00 0.00 0.00 0.00 0.00 0.00 0.00 0.00 0.00 0.00 0.00 0.00 0.00 0.00 0.00 0.00 0.00 0.00 0.00 0.00 0.00 0.00 0.00 0.00 0.00 0.00 0.00 0.00 0.00 0.00 0.00 0.00 0.00 0.00 0.00 0.00 0.00 0.00 0.00
0.00 0.00 0.00 0.00 0.00 0.00 0.00 0.00 0.00 0.00 0.00 0.00 0.00 0.00 0.00 0.00 0.00 0.00 0.00 0.00 0.00 0.00 0.00 0.00 0.00 0.00 0.00 0.00 0.00 0.00 0.00 0.00 0.00 0.00 0.00 0.00 0.00 0.00 0.00 0.00 0.00 0.00 0.00 0.00 0.00 0.00 0.00 0.00 0.00
0.00 0.00 0.00 0.00 0.00 0.00 0.00 0.00 0.00 0.00 0.00 0.00 0.00 0.00 0.00 0.00 0.00 0.00 0.00 0.00 0.00 0.00 0.00 0.00 0.00 0.00 0.00 0.00 0.00 0.00 0.00 0.00 0.00 0.00 0.00 0.00 0.00 0.00 0.00 0.00 0.00 0.00 0.00 0.00 0.00 0.00 0.00 0.00 0.00
MSLP
1008.71 1007.86 1006.55 1005.36 1003.97 1000.58 999.72 1000.21 1000.67 1001.65 1002.40 1004.39 1004.70 1004.84 1006.11 1007.03 1007.49 1009.92 1011.56 1011.66 1011.38 1011.91 1012.37 1012.86 1013.95 1014.02 1014.05 1014.00 1014.12 1014.29 1014.35 1014.41 1014.48 1014.53 1014.58 1014.57 1014.55 1014.59 1014.54 1014.38 1014.34 1014.33 1014.24 1014.19 1014.13 1014.04 1014.02 1013.97 1014.01
1007.33 1006.33 1005.69 1003.69 1001.38 1000.08 1001.05 1000.04 1000.60 1002.22 1003.84 1004.65 1005.39 1005.41 1006.33 1008.27 1009.17 1010.27 1010.62 1011.01 1011.34 1011.70 1012.28 1013.31 1014.04 1014.27 1014.30 1014.31 1014.37 1014.52 1014.63 1014.60 1014.65 1014.67 1014.69 1014.79 1014.81 1014.79 1014.75 1014.70 1014.57 1014.55 1014.49 1014.45 1014.41 1014.43 1014.35 1014.22 1013.98
1007.97 1006.17 1004.54 1001.37 999.59 1000.43 1000.03 1000.47 1001.33 1003.16 1004.07 1004.34 1005.36 1006.48 1007.35 1010.20 1010.41 1010.45 1010.79 1010.94 1011.09 1011.67 1012.42 1013.85 1014.25 1014.48 1014.55 1014.65 1014.74 1014.85 1014.94 1014.99 1015.05 1015.04 1015.07 1015.15 1015.24 1015.22 1015.15 1015.08 1014.93 1014.78 1014.70 1014.59 1014.49 1014.47 1014.46 1014.37 1014.31
1006.27 1004.39 1003.23 1000.67 1000.55 1000.05 1000.41 1000.89 1002.04 1003.14 1003.95 1004.88 1005.41 1007.38 1009.88 1011.25 1011.07 1011.02 1010.83 1011.07 1011.23 1011.14 1012.48 1014.20 1014.50 1014.70 1014.75 1014.82 1014.89 1015.01 1015.11 1015.18 1015.29 1015.37 1015.35 1015.32 1015.38 1015.33 1015.22 1015.16 1015.09 1015.00 1014.92 1014.78 1014.70 1014.63 1014.49 1014.43 1014.32
1005.68 1003.55 1000.94 999.78 1000.45 1000.77 1000.73 1001.47 1001.96 1002.99 1004.39 1005.32 1005.86 1008.13 1010.01 1010.99 1011.11 1011.22 1011.03 1010.83 1011.04 1011.60 1012.40 1013.85 1014.77 1014.95 1014.93 1014.91 1015.02 1015.16 1015.34 1015.40 1015.44 1015.48 1015.43 1015.49 1015.47 1015.40 1015.33 1015.23 1015.14 1015.00 1014.88 1014.82 1014.67 1014.52 1014.46 1014.34 1014.22
1004.21 1002.26 1000.30 999.89 1000.81 1000.82 1001.37 1002.22 1002.40 1003.26 1005.16 1005.95 1006.88 1008.34 1010.25 1011.00 1010.87 1010.92 1010.87 1011.03 1011.40 1011.89 1012.05 1013.64 1014.84 1015.01 1015.07 1015.17 1015.25 1015.38 1015.48 1015.60 1015.66 1015.65 1015.62 1015.54 1015.52 1015.37 1015.22 1015.09 1014.98 1014.86 1014.80 1014.67 1014.55 1014.38 1014.25 1014.16 1014.06
1004.11 1001.76 1000.22 1000.18 1000.82 1001.21 1001.85 1002.51 1002.31 1003.26 1005.22 1006.15 1006.43 1008.14 1010.20 1010.42 1010.90 1011.37 1011.32 1011.32 1011.44 1011.58 1011.93 1012.31 1013.51 1014.65 1015.02 1015.32 1015.51 1015.61 1015.62 1015.64 1015.66 1015.64 1015.62 1015.48 1015.30 1015.18 1014.99 1014.88 1014.89 1014.88 1014.75 1014.55 1014.34 1014.17 1014.03 1013.89 1013.75
1003.77 1002.41 1000.85 1000.26 1000.22 1001.21 1001.40 1002.64 1003.29 1003.68 1006.14 1007.26 1007.04 1007.89 1010.23 1011.70 1011.11 1011.00 1011.01 1011.15 1011.37 1011.45 1011.64 1012.23 1012.75 1012.93 1013.75 1014.35 1015.45 1015.52 1015.62 1015.70 1015.66 1015.62 1015.47 1015.26 1014.98 1014.55 1014.58 1014.62 1014.88 1014.78 1014.62 1014.38 1014.15 1013.88 1013.69 1013.51 1013.35
1004.09 1002.94 1001.05 1000.22 1000.29 1000.79 1002.26 1002.73 1004.46 1005.55 1006.49 1007.80 1008.54 1008.89 1010.83 1011.35 1010.87 1010.89 1010.95 1011.42 1012.02 1012.43 1013.01 1013.36 1013.55 1013.12 1013.04 1013.34 1014.62 1015.47 1015.24 1015.34 1015.38 1015.22 1015.17 1014.63 1014.00 1013.95 1013.79 1014.48 1014.59 1014.56 1014.42 1014.12 1013.79 1013.59 1013.39 1013.00 1012.64
1003.82 1002.57 1001.14 1000.15 1000.03 1000.66 1002.02 1002.75 1004.60 1005.98 1007.32 1008.70 1009.93 1011.03 1011.69 1011.33 1011.15 1011.60 1012.43 1012.61 1014.29 1014.71 1014.68 1014.59 1014.79 1014.12 1014.02 1013.55 1014.04 1014.04 1014.26 1014.62 1015.27 1015.58 1015.45 1014.51 1014.64 1014.42 1014.38 1014.15 1014.23 1014.12 1013.95 1013.37 1013.27 1013.07 1012.71 1012.58 1011.68
1003.19 1002.18 1001.03 1000.63 1001.15 1001.41 1002.30 1003.02 1004.37 1005.42 1007.28 1008.83 1009.88 1011.28 1011.71 1012.16 1012.91 1013.19 1013.75 1014.05 1015.08 1015.29 1015.53 1015.56 1015.55 1015.14 1014.64 1013.98 1014.27 1014.24 1014.48 1015.45 1015.53 1015.87 1015.95 1015.09 1014.85 1014.86 1014.21 1013.50 1013.13 1013.19 1013.24 1012.28 1012.71 1012.11 1011.58 1011.89 1011.68
1002.86 1002.16 1001.63 1001.48 1001.97 1002.18 1002.60 1003.81 1005.20 1005.31 1007.43 1009.91 1011.09 1011.69 1012.27 1012.87 1013.22 1013.74 1014.38 1014.79 1015.02 1015.45 1015.66 1015.82 1016.07 1016.06 1015.79 1015.07 1014.94 1015.32 1015.29 1015.90 1015.63 1016.02 1016.54 1016.02 1015.54 1016.07 1015.68 1014.89 1014.48 1014.20 1013.56 1013.24 1012.87 1012.38 1012.32 1011.97 1011.62
1002.74 1001.91 1002.36 1002.34 1002.53 1002.93 1003.40 1004.96 1006.18 1008.40 1010.23 1011.35 1011.98 1012.01 1012.50 1012.95 1013.45 1013.86 1014.45 1015.01 1015.39 1015.81 1016.22 1016.74 1017.08 1017.14 1016.79 1016.36 1016.25 1016.39 1016.28 1016.38 1016.40 1016.46 1017.06 1016.94 1016.38 1016.41 1015.82 1015.26 1014.74 1014.19 1013.75 1013.55 1013.19 1012.66 1012.29 1011.95 1011.09
1002.37 1002.20 1002.63 1002.70 1003.09 1003.33 1003.87 1006.44 1007.99 1009.80 1011.01 1011.79 1012.34 1012.75 1013.16 1013.56 1013.83 1014.27 1014.63 1015.27 1015.85 1016.42 1017.08 1017.39 1017.46 1017.47 1017.09 1017.01 1017.04 1016.77 1017.05 1016.80 1016.72 1016.85 1017.53 1017.42 1017.22 1017.11 1016.56 1015.58 1015.07 1014.72 1014.85 1014.51 1014.17 1013.47 1013.07 1012.15 1011.24
1002.61 1002.64 1002.57 1002.85 1002.95 1003.43 1004.42 1007.03 1007.76 1009.81 1010.54 1011.50 1012.37 1013.00 1013.64 1014.12 1014.47 1015.09 1015.67 1016.13 1016.42 1017.41 1017.57 1017.37 1017.56 1017.94 1018.09 1018.07 1018.06 1018.11 1018.19 1017.96 1017.70 1017.48 1017.47 1017.98 1017.80 1017.56 1017.21 1015.90 1015.47 1015.36 1015.64 1014.85 1014.21 1013.96 1013.19 1012.44 1011.76
1002.52 1002.12 1002.03 1002.32 1002.93 1003.43 1005.08 1005.60 1008.86 1010.19 1010.41 1011.29 1012.12 1012.90 1013.51 1014.23 1015.02 1015.75 1016.37 1016.88 1017.13 1017.53 1017.96 1018.13 1018.01 1018.16 1018.34 1018.46 1018.34 1018.12 1018.25 1017.87 1017.73 1017.65 1017.62 1018.30 1018.10 1017.91 1017.52 1016.35 1016.07 1016.33 1015.67 1014.75 1014.31 1014.13 1013.62 1013.05 1012.44
1002.10 1001.01 1000.97 1001.94 1003.17 1003.64 1004.93 1006.66 1009.29 1010.44 1010.28 1010.99 1011.96 1012.77 1013.61 1014.69 1015.59 1016.26 1016.82 1017.33 1017.83 1018.30 1018.50 1018.69 1018.88 1018.66 1018.54 1018.34 1018.06 1017.87 1017.83 1017.81 1017.91 1017.89 1018.06 1018.60 1018.21 1018.02 1017.75 1016.71 1016.45 1016.64 1015.49 1014.94 1014.80 1014.62 1014.16 1013.36 1012.71
1000.38 1000.71 1000.13 1000.87 1002.61 1003.45 1004.54 1006.48 1009.27 1010.30 1010.32 1010.82 1011.54 1012.35 1013.32 1014.46 1015.65 1016.55 1017.13 1017.82 1018.41 1018.87 1019.04 1019.31 1019.33 1019.34 1018.88 1018.49 1017.93 1017.58 1017.33 1017.41 1017.82 1018.12 1018.60 1018.85 1018.48 1018.18 1017.88 1017.02 1016.77 1016.52 1015.78 1015.51 1015.53 1015.20 1014.41 1013.61 1012.52
999.96 999.92 999.70 1000.65 1001.75 1003.10 1003.64 1006.48 1008.75 1010.30 1010.61 1010.47 1010.94 1011.95 1013.07 1014.36 1015.85 1016.67 1017.21 1017.92 1018.49 1019.13 1019.45 1019.68 1019.92 1019.98 1019.49 1019.01 1018.63 1018.41 1018.10 1017.96 1018.06 1018.21 1018.78 1018.87 1018.81 1018.37 1017.94 1017.38 1016.93 1016.51 1016.06 1015.89 1015.76 1015.21 1014.37 1013.30 1013.01
1000.58 1000.06 1000.08 1001.34 1002.86 1003.55 1003.37 1005.40 1007.93 1009.67 1010.06 1010.20 1010.51 1011.52 1012.72 1014.36 1015.64 1016.53 1017.17 1017.82 1018.62 1019.16 1019.76 1020.09 1020.24 1020.33 1020.17 1019.79 1019.35 1019.23 1018.59 1018.21 1018.26 1018.14 1018.47 1018.65 1018.75 1018.41 1018.01 1017.87 1017.29 1017.20 1016.38 1016.15 1016.34 1015.95 1015.08 1013.93 1013.37
1000.83 1000.34 1000.61 1001.55 1003.04 1003.40 1003.09 1004.41 1006.69 1008.75 1009.81 1009.89 1010.24 1010.98 1012.13 1013.77 1015.02 1016.02 1016.90 1017.61 1018.37 1019.21 1019.75 1020.24 1020.52 1020.50 1020.65 1020.48 1019.74 1019.41 1018.59 1018.05 1018.15 1018.40 1018.14 1018.78 1018.62 1018.88 1018.69 1018.60 1018.34 1017.86 1017.11 1016.73 1016.80 1016.36 1016.13 1014.84 1014.40
1000.48 1000.65 1000.52 1001.82 1002.70 1002.74 1003.63 1002.96 1004.59 1007.21 1008.62 1009.04 1009.34 1010.20 1011.51 1013.02 1014.50 1015.60 1016.45 1017.29 1018.10 1018.98 1019.70 1020.28 1020.58 1020.70 1020.63 1020.64 1020.23 1020.04 1019.39 1018.99 1019.00 1018.69 1018.84 1019.06 1019.32 1019.49 1019.37 1019.05 1018.55 1017.83 1017.62 1017.17 1016.79 1016.88 1016.47 1015.87 1015.15
1000.16 1000.46 1001.47 1002.03 1002.26 1002.18 1003.85 1003.09 1001.67 1004.77 1006.40 1007.05 1007.96 1009.36 1010.86 1012.43 1013.87 1014.99 1016.04 1016.89 1017.87 1018.76 1019.50 1020.14 1020.54 1020.78 1020.84 1020.77 1020.73 1020.42 1020.44 1020.13 1019.82 1019.80 1020.00 1019.66 1019.89 1019.84 1019.71 1019.20 1018.62 1018.24 1017.88 1017.52 1017.48 1017.25 1016.87 1016.16 1016.13
1000.86 1001.11 1001.64 1002.00 1001.63 1001.19 1001.04 1001.94 1002.15 1002.88 1003.78 1005.80 1006.81 1008.44 1010.24 1011.79 1013.34 1014.42 1015.49 1016.90 1017.78 1018.51 1019.03 1019.84 1020.22 1020.61 1020.84 1020.88 1020.86 1021.23 1021.28 1021.13 1021.00 1020.88 1020.67 1020.55 1020.17 1019.96 1019.59 1019.64 1018.93 1018.54 1018.27 1018.05 1017.61 1017.47 1017.18 1017.10 1016.94
1001.11 1001.18 1001.18 1001.03 1000.63 1000.22 1000.85 1001.74 1001.38 1003.09 1004.29 1004.36 1004.94 1007.09 1009.34 1011.21 1012.84 1013.95 1015.31 1016.54 1017.34 1018.00 1018.90 1019.38 1020.02 1020.40 1020.79 1020.89 1020.98 1021.47 1021.46 1021.48 1021.24 1021.17 1021.10 1020.96 1020.60 1020.36 1020.12 1020.00 1019.28 1018.93 1018.62 1018.20 1017.81 1017.57 1017.21 1017.14 1016.97
1000.68 1000.83 1000.40 1000.14 1000.77 1000.47 1001.62 1000.94 1001.53 1003.05 1003.83 1004.29 1004.87 1005.92 1008.50 1010.61 1012.10 1013.44 1014.84 1015.89 1016.80 1018.08 1018.89 1019.44 1019.88 1020.33 1020.73 1020.97 1021.06 1021.71 1021.74 1021.47 1021.55 1021.62 1021.46 1021.15 1020.89 1020.61 1020.34 1019.61 1019.32 1018.83 1018.48 1018.23 1017.83 1017.86 1017.60 1017.36 1017.05
1000.34 1000.46 1000.54 1000.62 1000.67 1000.73 1000.18 1000.58 1002.09 1002.93 1003.84 1004.81 1005.61 1006.06 1008.18 1010.16 1011.57 1012.95 1014.36 1015.57 1016.49 1017.95 1018.88 1019.38 1019.83 1020.30 1020.65 1020.81 1021.51 1021.90 1021.93 1021.84 1021.94 1021.72 1021.20 1020.87 1020.57 1020.27 1020.12 1019.54 1019.04 1018.68 1018.55 1018.63 1017.98 1018.11 1017.92 1017.67 1017.34
1000.24 1000.34 1001.17 1001.38 1001.22 1000.89 1000.30 1000.98 1000.98 1002.72 1003.41 1004.66 1005.63 1006.64 1008.21 1009.92 1011.16 1012.54 1014.12 1015.51 1016.65 1017.74 1018.90 1019.58 1020.12 1020.30 1020.56 1020.75 1021.51 1021.95 1021.96 1021.92 1021.81 1021.52 1021.00 1020.80 1020.53 1020.10 1019.77 1019.44 1019.16 1018.89 1018.78 1018.85 1018.62 1018.23 1018.28 1018.09 1017.86
1000.72 1000.86 1001.09 1001.49 1002.34 1001.97 1000.93 1001.28 1001.85 1002.28 1002.87 1003.65 1004.75 1006.34 1007.98 1009.55 1010.72 1012.22 1013.98 1015.52 1016.87 1017.69 1018.48 1019.42 1019.69 1020.06 1020.38 1020.82 1021.68 1021.90 1021.80 1021.41 1021.23 1021.15 1021.04 1020.88 1020.72 1020.41 1020.12 1019.85 1019.51 1019.15 1018.92 1018.95 1018.79 1018.46 1018.20 1018.00 1017.89
1000.30 1000.27 1000.76 1001.36 1002.02 1002.23 1002.06 1001.48 1001.93 1002.52 1003.07 1004.07 1004.43 1005.64 1007.08 1009.04 1010.23 1011.82 1013.66 1015.43 1016.41 1017.24 1018.06 1019.13 1019.62 1019.91 1020.52 1021.12 1021.63 1021.61 1021.59 1021.23 1021.30 1021.21 1021.06 1020.82 1020.70 1020.52 1020.37 1020.09 1019.85 1019.45 1019.16 1019.05 1018.77 1018.55 1018.31 1018.11 1017.94
Thickness
5834 5844 5856 5849 5822 5849 5838 5832 5849 5831 5830 5830 5832 5823 5805 5804 5793 5759 5787 5789 5793 5787 5784 5777 5770 5769 5768 5769 5768 5766 5765 5764 5763 5762 5761 5761 5761 5761 5762 5764 5765 5764 5765 5765 5765 5765 5764 5765 5765
5845 5854 5852 5848 5831 5804 5785 5850 5839 5834 5829 5833 5826 5824 5810 5783 5798 5789 5789 5795 5790 5786 5780 5771 5765 5763 5762 5762 5761 5760 5758 5759 5758 5758 5759 5757 5757 5758 5758 5758 5760 5759 5760 5760 5760 5760 5760 5761 5762
5840 5854 5835 5846 5855 5803 5812 5841 5840 5833 5835 5831 5817 5819 5807 5771 5786 5788 5794 5794 5790 5783 5776 5764 5760 5758 5757 5757 5756 5755 5755 5755 5753 5753 5753 5751 5749 5749 5750 5750 5751 5753 5753 5754 5755 5755 5755 5756 5757
5841 5850 5850 5836 5807 5844 5838 5847 5839 5831 5833 5831 5825 5793 5789 5785 5783 5788 5795 5792 5786 5785 5772 5759 5757 5755 5755 5754 5754 5753 5752 5751 5749 5748 5748 5747 5745 5745 5745 5745 5745 5746 5746 5747 5747 5747 5749 5749 5750
5843 5843 5834 5841 5824 5834 5853 5850 5849 5826 5820 5816 5819 5785 5775 5785 5792 5791 5791 5792 5785 5780 5772 5761 5754 5752 5752 5752 5751 5749 5748 5747 5746 5744 5744 5742 5742 5741 5742 5742 5742 5743 5743 5742 5743 5744 5745 5746 5747
5822 5845 5831 5819 5794 5828 5843 5843 5841 5828 5814 5810 5801 5788 5774 5789 5788 5789 5791 5787 5784 5778 5775 5762 5753 5751 5750 5748 5747 5746 5744 5743 5741 5740 5739 5739 5738 5738 5738 5739 5739 5740 5739 5740 5739 5740 5741 5742 5743
5811 5828 5831 5830 5813 5821 5825 5842 5839 5827 5809 5802 5815 5782 5779 5785 5789 5786 5786 5785 5782 5779 5776 5771 5761 5752 5749 5745 5743 5741 5740 5739 5737 5737 5736 5735 5735 5734 5735 5735 5734 5733 5733 5734 5735 5735 5736 5737 5738
5824 5824 5821 5836 5829 5818 5821 5832 5837 5827 5798 5812 5816 5783 5766 5770 5787 5789 5788 5785 5783 5781 5777 5770 5765 5762 5756 5749 5740 5739 5736 5734 5734 5733 5732 5732 5732 5734 5733 5731 5727 5727 5727 5728 5729 5731 5731 5731 5732
5828 5798 5806 5827 5830 5827 5831 5822 5821 5822 5804 5799 5798 5794 5780 5782 5788 5783 5781 5777 5771 5769 5764 5759 5756 5758 5757 5754 5742 5735 5735 5732 5730 5729 5728 5730 5733 5731 5731 5726 5723 5721 5721 5723 5724 5725 5725 5727 5729
5803 5795 5810 5850 5853 5842 5830 5829 5809 5799 5789 5781 5778 5780 5778 5782 5779 5770 5760 5760 5746 5744 5747 5748 5744 5748 5748 5749 5743 5741 5737 5732 5725 5721 5720 5725 5723 5722 5721 5722 5719 5718 5717 5721 5720 5720 5721 5721 5726
5808 5798 5830 5840 5841 5842 5825 5826 5820 5802 5780 5781 5773 5768 5772 5768 5760 5756 5751 5750 5740 5742 5740 5739 5737 5738 5740 5743 5739 5736 5732 5722 5719 5714 5711 5716 5715 5713 5715 5718 5720 5716 5716 5720 5716 5720 5722 5718 5717
5794 5816 5823 5828 5829 5827 5817 5819 5803 5815 5791 5782 5773 5770 5765 5757 5755 5751 5745 5744 5743 5739 5738 5736 5731 5729 5729 5732 5730 5724 5722 5714 5714 5709 5702 5704 5705 5699 5698 5701 5702 5702 5704 5705 5706 5708 5707 5709 5710
5797 5811 5815 5821 5820 5819 5818 5797 5790 5775 5772 5770 5766 5767 5761 5757 5754 5753 5748 5744 5740 5734 5731 5727 5722 5719 5719 5719 5717 5713 5711 5708 5705 5702 5695 5693 5694 5690 5691 5692 5693 5695 5695 5694 5695 5697 5699 5701 5707
5808 5810 5806 5812 5809 5812 5801 5781 5775 5765 5766 5760 5758 5754 5753 5749 5749 5746 5743 5737 5733 5728 5721 5718 5715 5712 5712 5710 5706 5706 5701 5700 5698 5694 5686 5684 5682 5679 5680 5684 5684 5684 5679 5679 5679 5683 5684 5690 5696
5807 5789 5800 5801 5806 5800 5801 5763 5767 5767 5768 5757 5751 5749 5745 5742 5742 5735 5731 5727 5726 5717 5715 5716 5711 5704 5700 5698 5695 5691 5688 5686 5685 5683 5681 5672 5670 5668 5667 5673 5674 5671 5665 5668 5670 5669 5673 5677 5682
5790 5796 5774 5798 5800 5801 5788 5766 5758 5762 5763 5753 5750 5746 5742 5738 5732 5728 5724 5719 5717 5713 5708 5705 5703 5697 5692 5688 5686 5684 5680 5679 5677 5674 5670 5661 5659 5657 5656 5661 5660 5654 5656 5661 5662 5660 5661 5663 5664
5783 5775 5787 5781 5797 5790 5782 5755 5752 5757 5761 5752 5746 5742 5737 5728 5723 5720 5717 5712 5707 5702 5699 5694 5690 5688 5685 5682 5681 5680 5677 5673 5668 5664 5658 5650 5649 5646 5644 5648 5647 5641 5647 5649 5648 5647 5647 5650 5652
5779 5777 5802 5788 5787 5787 5777 5760 5746 5750 5755 5749 5746 5741 5733 5726 5717 5713 5709 5704 5698 5693 5689 5684 5681 5677 5677 5675 5676 5675 5673 5668 5660 5654 5646 5640 5638 5636 5633 5635 5634 5633 5635 5635 5632 5632 5636 5640 5646
5804 5799 5801 5802 5799 5783 5786 5755 5743 5740 5744 5747 5746 5738 5730 5721 5713 5708 5704 5698 5692 5685 5680 5675 5669 5665 5665 5664 5662 5658 5656 5653 5648 5642 5635 5630 5626 5625 5623 5623 5623 5623 5623 5622 5622 5624 5626 5632 5633
5787 5790 5793 5788 5782 5776 5788 5762 5750 5737 5740 5745 5744 5736 5728 5716 5707 5702 5697 5693 5684 5677 5670 5665 5660 5655 5652 5651 5649 5644 5644 5642 5638 5633 5627 5621 5616 5614 5612 5609 5610 5608 5610 5612 5607 5607 5611 5618 5622
5777 5781 5780 5773 5769 5776 5781 5759 5748 5744 5740 5744 5745 5741 5731 5716 5706 5698 5692 5686 5680 5670 5663 5656 5650 5646 5640 5635 5637 5634 5635 5633 5628 5621 5618 5608 5606 5599 5597 5593 5592 5592 5596 5597 5594 5595 5595 5601 5604
5763 5792 5794 5770 5758 5748 5767 5748 5745 5742 5734 5738 5742 5738 5729 5717 5707 5697 5690 5682 5674 5665 5657 5648 5641 5636 5632 5626 5624 5619 5617 5614 5610 5608 5602 5594 5589 5583 5580 5579 5580 5582 5581 5584 5586 5583 5584 5587 5589
5780 5794 5776 5769 5763 5771 5741 5752 5783 5755 5734 5739 5743 5736 5727 5717 5705 5695 5687 5680 5670 5660 5650 5641 5634 5627 5621 5616 5612 5607 5598 5595 5592 5588 5580 5579 5573 5569 5567 5568 5570 5570 5571 5572 5570 5571 5573 5578 5576
5786 5776 5772 5770 5772 5751 5775 5761 5755 5757 5752 5746 5744 5737 5725 5715 5703 5695 5687 5673 5662 5655 5646 5636 5628 5619 5613 5607 5601 5591 5583 5577 5571 5567 5564 5561 5561 5559 5559 5557 5559 5560 5560 5561 5564 5565 5567 5567 5566
5770 5759 5737 5737 5745 5748 5775 5756 5772 5758 5739 5761 5749 5743 5726 5713 5699 5689 5677 5665 5657 5650 5639 5632 5621 5612 5605 5597 5590 5578 5571 5563 5559 5555 5552 5549 5549 5549 5549 5548 5552 5553 5554 5556 5558 5561 5563 5562 5561
5761 5762 5748 5722 5721 5741 5759 5745 5757 5760 5762 5761 5759 5748 5730 5710 5699 5687 5676 5666 5656 5643 5632 5624 5615 5606 5597 5588 5580 5566 5558 5554 5548 5542 5539 5539 5539 5541 5542 5545 5547 5549 5552 5553 5556 5555 5556 5556 5556
5761 5753 5781 5751 5763 5748 5769 5766 5761 5760 5749 5744 5741 5741 5722 5706 5696 5685 5675 5663 5653 5638 5626 5618 5609 5599 5589 5581 5568 5556 5548 5542 5534 5532 5533 5533 5535 5537 5538 5542 5546 5548 5549 5547 5551 5549 5548 5549 5548
5766 5780 5738 5748 5717 5717 5753 5743 5749 5733 5734 5734 5729 5724 5715 5703 5694 5684 5671 5657 5645 5634 5620 5610 5600 5592 5584 5576 5562 5550 5542 5535 5528 5524 5526 5527 5530 5534 5537 5540 5543 5545 5545 5543 5543 5544 5541 5540 5538
5748 5744 5752 5751 5732 5712 5726 5730 5755 5747 5746 5737 5729 5721 5710 5699 5692 5680 5665 5651 5638 5628 5619 5605 5598 5589 5581 5571 5557 5548 5541 5536 5530 5525 5524 5524 5527 5530 5533 5535 5538 5541 5541 5539 5538 5538 5538 5536 5532
5761 5757 5755 5731 5720 5735 5730 5732 5757 5751 5746 5737 5734 5721 5715 5700 5692 5679 5662 5645 5635 5626 5616 5603 5593 5586 5576 5565 5555 5548 5541 5538 5531 5527 5526 5526 5528 5529 5530 5532 5533 5536 5537 5536 5535 5534 5532 5528 5524